TimeCET,TemperatureF,Dew PointF,Humidity,Sea Level PressureIn,VisibilityMPH,Wind Direction,Wind SpeedMPH,Gust SpeedMPH,PrecipitationIn,Events,Conditions,WindDirDegrees,DateUTC
12:00 AM,42.8,37.4,81,30.39,-9999.0,WNW,8.1,-,N/A,,Clear,290,2013-02-04 23:00:00
12:30 AM,42.8,37.4,81,30.39,-9999.0,WNW,8.1,-,N/A,,Clear,290,2013-02-04 23:30:00
1:00 AM,44,38,73,30.40,9,WNW,6.9,,,,,290,2013-02-05 00:00:00
1:00 AM,41.0,37.4,87,30.39,-9999.0,WNW,6.9,-,N/A,,Clear,290,2013-02-05 00:00:00
1:30 AM,41.0,37.4,87,30.36,-9999.0,WNW,8.1,-,N/A,,Clear,300,2013-02-05 00:30:00
2:00 AM,41.0,37.4,87,30.36,-9999.0,WNW,10.4,-,N/A,,Clear,300,2013-02-05 01:00:00
2:30 AM,39.2,35.6,87,30.36,-9999.0,WNW,8.1,-,N/A,,Clear,300,2013-02-05 01:30:00
3:00 AM,39.2,35.6,87,30.36,-9999.0,WNW,9.2,-,N/A,,Clear,300,2013-02-05 02:00:00
3:30 AM,39.2,35.6,87,30.33,-9999.0,WNW,9.2,-,N/A,,Clear,290,2013-02-05 02:30:00
4:00 AM,39.2,35.6,87,30.33,-9999.0,WNW,10.4,-,N/A,,Clear,290,2013-02-05 03:00:00
4:30 AM,37.4,35.6,93,30.33,-9999.0,WNW,8.1,-,N/A,,Clear,300,2013-02-05 03:30:00
5:00 AM,39.2,35.6,87,30.33,-9999.0,WNW,9.2,-,N/A,,Clear,290,2013-02-05 04:00:00
5:30 AM,37.4,35.6,93,30.33,-9999.0,WNW,9.2,-,N/A,,Clear,300,2013-02-05 04:30:00
6:00 AM,37.4,35.6,93,30.33,-9999.0,WNW,9.2,-,N/A,,Clear,300,2013-02-05 05:00:00
6:30 AM,39.2,35.6,87,30.33,-9999.0,WNW,11.5,-,N/A,,Clear,290,2013-02-05 05:30:00
7:00 AM,39,36,83,30.35,9,WNW,8.1,,,,,300,2013-02-05 06:00:00
7:00 AM,37.4,35.6,93,30.33,-9999.0,NW,8.1,-,N/A,,Clear,310,2013-02-05 06:00:00
7:30 AM,37.4,35.6,93,30.33,-9999.0,WNW,8.1,-,N/A,,Clear,290,2013-02-05 06:30:00
8:00 AM,37.4,35.6,93,30.33,-9999.0,WNW,10.4,-,N/A,,Clear,290,2013-02-05 07:00:00
8:30 AM,39.2,35.6,87,30.33,-9999.0,WNW,9.2,-,N/A,,Clear,290,2013-02-05 07:30:00
9:00 AM,39.2,35.6,87,30.33,-9999.0,WNW,9.2,-,N/A,,Clear,290,2013-02-05 08:00:00
9:30 AM,42.8,37.4,81,30.36,-9999.0,WNW,5.8,-,N/A,,Clear,300,2013-02-05 08:30:00
10:00 AM,44.6,39.2,81,30.36,-9999.0,WNW,8.1,-,N/A,,Clear,300,2013-02-05 09:00:00
10:30 AM,48.2,41.0,76,30.36,-9999.0,WNW,6.9,-,N/A,,Clear,300,2013-02-05 09:30:00
11:00 AM,50.0,42.8,76,30.33,-9999.0,NW,5.8,-,N/A,,Clear,310,2013-02-05 10:00:00
12:00 PM,57.2,41.0,55,30.33,-9999.0,WNW,3.5,-,N/A,,Clear,300,2013-02-05 11:00:00
12:30 PM,59.0,41.0,51,30.30,-9999.0,Calm,Calm,-,N/A,,Clear,0,2013-02-05 11:30:00
1:00 PM,60,47,52,30.32,16,SE,3.5,,,,,140,2013-02-05 12:00:00
1:00 PM,59.0,46.4,63,30.30,-9999.0,SE,3.5,-,N/A,,Clear,140,2013-02-05 12:00:00
1:30 PM,60.8,46.4,59,30.27,-9999.0,ESE,4.6,-,N/A,,Clear,120,2013-02-05 12:30:00
2:00 PM,62.6,44.6,52,30.24,-9999.0,SE,3.5,-,N/A,,Clear,140,2013-02-05 13:00:00
2:30 PM,64.4,44.6,49,30.24,-9999.0,Variable,1.2,-,N/A,,Clear,0,2013-02-05 13:30:00
3:00 PM,64.4,44.6,49,30.21,-9999.0,East,1.2,-,N/A,,Clear,100,2013-02-05 14:00:00
3:30 PM,66.2,46.4,49,30.21,-9999.0,ESE,3.5,-,N/A,,Clear,110,2013-02-05 14:30:00
4:30 PM,68.0,48.2,49,30.18,-9999.0,Variable,2.3,-,N/A,,Clear,0,2013-02-05 15:30:00
5:00 PM,71.6,42.8,35,30.18,-9999.0,NW,11.5,-,N/A,,Clear,320,2013-02-05 16:00:00
5:30 PM,69.8,42.8,38,30.18,-9999.0,NW,11.5,-,N/A,,Clear,310,2013-02-05 16:30:00
6:00 PM,68.0,41.0,37,30.18,-9999.0,NW,16.1,-,N/A,,Clear,320,2013-02-05 17:00:00
6:30 PM,66.2,42.8,43,30.18,-9999.0,NW,15.0,-,N/A,,Clear,320,2013-02-05 17:30:00
7:00 PM,67,45,34,30.20,16,NW,12.7,,,,Clear,320,2013-02-05 18:00:00
7:00 PM,64.4,42.8,45,30.18,-9999.0,NW,12.7,-,N/A,,Clear,320,2013-02-05 18:00:00
7:30 PM,60.8,44.6,55,30.18,-9999.0,NW,4.6,-,N/A,,Clear,310,2013-02-05 18:30:00
8:00 PM,59.0,42.8,55,30.18,-9999.0,NW,2.3,-,N/A,,Clear,310,2013-02-05 19:00:00
8:30 PM,60.8,44.6,55,30.18,-9999.0,Variable,2.3,-,N/A,,Clear,0,2013-02-05 19:30:00
9:00 PM,60.8,44.6,55,30.18,-9999.0,NNW,5.8,-,N/A,,Clear,330,2013-02-05 20:00:00
9:30 PM,60.8,44.6,55,30.18,-9999.0,WNW,11.5,-,N/A,,Clear,300,2013-02-05 20:30:00
10:00 PM,59.0,42.8,55,30.18,-9999.0,WNW,13.8,-,N/A,,Clear,300,2013-02-05 21:00:00
10:30 PM,59.0,42.8,55,30.18,-9999.0,WNW,13.8,-,N/A,,Clear,290,2013-02-05 21:30:00
11:00 PM,59.0,42.8,55,30.18,-9999.0,West,15.0,-,N/A,,Clear,280,2013-02-05 22:00:00
11:30 PM,59.0,42.8,55,30.18,-9999.0,West,5.8,-,N/A,,Clear,270,2013-02-05 22:30:00